Tracking 29892 objects as of 21-Nov-2024
HD Live streaming from Space Station
objects crossing your sky now

STARLINK-1907

Track STARLINK-1907 now!
10-day predictions
STARLINK-1907 is classified as:


NORAD ID: 47177
Int'l Code: 2020-088BH
Perigee: 499.5 km
Apogee: 501.4 km
Inclination: 53.1 °
Period: 94.5 minutes
Semi major axis: 6871 km
RCS: Unknown
Launch date: November 25, 2020
Source: United States (US)
Launch site: AIR FORCE EASTERN TEST RANGE (AFETR)
Your satellite tracking list
Your tracking list is empty




NASA's NSSDC Master Catalog

Two Line Element Set (TLE):
1 47177U 20088BH  24325.91668981  .00428721  00000-0  16412-1 0  9997
2 47177  53.0523 257.3171 0001390  77.1513 130.3025 15.24154010  5742
Source of the keplerian elements: AFSPC